Year,Month,Day,Hour,Minute,Value (Times are PST for temperature in C)
2020,05,27,00,00,12.80
2020,05,27,00,01,12.80
2020,05,27,00,02,12.90
2020,05,27,00,03,12.90
2020,05,27,00,04,12.90
2020,05,27,00,05,13.00
2020,05,27,00,06,13.00
2020,05,27,00,07,13.00
2020,05,27,00,08,12.90
2020,05,27,00,09,12.80
2020,05,27,00,10,12.80
2020,05,27,00,11,12.70
2020,05,27,00,12,12.60
2020,05,27,00,13,12.60
2020,05,27,00,14,12.50
2020,05,27,00,15,12.50
2020,05,27,00,16,12.50
2020,05,27,00,17,12.50
2020,05,27,00,18,12.50
2020,05,27,00,19,12.40
2020,05,27,00,20,12.40
2020,05,27,00,21,12.40
2020,05,27,00,22,12.30
2020,05,27,00,23,12.30
2020,05,27,00,24,12.20
2020,05,27,00,25,12.20
2020,05,27,00,26,12.10
2020,05,27,00,27,12.00
2020,05,27,00,28,11.90
2020,05,27,00,29,11.90
2020,05,27,00,30,11.70
2020,05,27,00,31,11.70
2020,05,27,00,32,11.60
2020,05,27,00,33,11.50
2020,05,27,00,34,11.50
2020,05,27,00,35,11.50
2020,05,27,00,36,11.50
2020,05,27,00,37,11.50
2020,05,27,00,38,11.50
2020,05,27,00,39,11.50
2020,05,27,00,40,11.50
2020,05,27,00,41,11.50
2020,05,27,00,42,11.50
2020,05,27,00,43,11.60
2020,05,27,00,44,11.60
2020,05,27,00,45,11.60
2020,05,27,00,46,11.60
2020,05,27,00,47,11.60
2020,05,27,00,48,11.70
2020,05,27,00,49,11.70
2020,05,27,00,50,11.70
2020,05,27,00,51,11.60
2020,05,27,00,52,11.60
2020,05,27,00,53,11.60
2020,05,27,00,54,11.60
2020,05,27,00,55,11.50
2020,05,27,00,56,11.40
2020,05,27,00,57,11.30
2020,05,27,00,58,11.30
2020,05,27,00,59,11.30
2020,05,27,01,00,11.30
2020,05,27,01,01,11.20
2020,05,27,01,02,11.20
2020,05,27,01,03,11.20
2020,05,27,01,04,11.10
2020,05,27,01,05,11.10
2020,05,27,01,06,11.00
2020,05,27,01,07,11.00
2020,05,27,01,08,11.00
2020,05,27,01,09,10.90
2020,05,27,01,10,10.90
2020,05,27,01,11,10.90
2020,05,27,01,12,10.90
2020,05,27,01,13,10.90
2020,05,27,01,14,10.90
2020,05,27,01,15,11.00
2020,05,27,01,16,11.00
2020,05,27,01,17,11.00
2020,05,27,01,18,11.10
2020,05,27,01,19,11.00
2020,05,27,01,20,11.10
2020,05,27,01,21,11.10
2020,05,27,01,22,11.10
2020,05,27,01,23,11.10
2020,05,27,01,24,11.10
2020,05,27,01,25,11.10
2020,05,27,01,26,11.10
2020,05,27,01,27,11.10
2020,05,27,01,28,11.10
2020,05,27,01,29,11.20
2020,05,27,01,30,11.30
2020,05,27,01,31,11.30
2020,05,27,01,32,11.30
2020,05,27,01,33,11.30
2020,05,27,01,34,11.30
2020,05,27,01,35,11.30
2020,05,27,01,36,11.20
2020,05,27,01,37,11.20
2020,05,27,01,38,11.20
2020,05,27,01,39,11.10
2020,05,27,01,40,11.00
2020,05,27,01,41,11.00
2020,05,27,01,42,11.00
2020,05,27,01,43,10.90
2020,05,27,01,44,10.90
2020,05,27,01,45,10.90
2020,05,27,01,46,10.90
2020,05,27,01,47,10.90
2020,05,27,01,48,10.90
2020,05,27,01,49,10.90
2020,05,27,01,50,10.90
2020,05,27,01,51,10.90
2020,05,27,01,52,10.80
2020,05,27,01,53,10.80
2020,05,27,01,54,10.80
2020,05,27,01,55,10.80
2020,05,27,01,56,10.70
2020,05,27,01,57,10.70
2020,05,27,01,58,10.60
2020,05,27,01,59,10.60
2020,05,27,02,00,10.60
2020,05,27,02,01,10.50
2020,05,27,02,02,10.50
2020,05,27,02,03,10.50
2020,05,27,02,04,10.40
2020,05,27,02,05,10.40
2020,05,27,02,06,10.30
2020,05,27,02,07,10.30
2020,05,27,02,08,10.30
2020,05,27,02,09,10.20
2020,05,27,02,10,10.20
2020,05,27,02,11,10.20
2020,05,27,02,12,10.20
2020,05,27,02,13,10.20
2020,05,27,02,14,10.20
2020,05,27,02,15,10.20
2020,05,27,02,16,10.20
2020,05,27,02,17,10.20
2020,05,27,02,18,10.20
2020,05,27,02,19,10.10
2020,05,27,02,20,10.10
2020,05,27,02,21,10.00
2020,05,27,02,22,10.00
2020,05,27,02,23,9.90
2020,05,27,02,24,9.80
2020,05,27,02,25,9.80
2020,05,27,02,26,9.80
2020,05,27,02,27,9.80
2020,05,27,02,28,9.80
2020,05,27,02,29,9.70
2020,05,27,02,30,9.70
2020,05,27,02,31,9.70
2020,05,27,02,32,9.70
2020,05,27,02,33,9.70
2020,05,27,02,34,9.70
2020,05,27,02,35,9.70
2020,05,27,02,36,9.70
2020,05,27,02,37,9.70
2020,05,27,02,38,9.60
2020,05,27,02,39,9.60
2020,05,27,02,40,9.50
2020,05,27,02,41,9.50
2020,05,27,02,42,9.40
2020,05,27,02,43,9.40
2020,05,27,02,44,9.40
2020,05,27,02,45,9.40
2020,05,27,02,46,9.40
2020,05,27,02,47,9.40
2020,05,27,02,48,9.30
2020,05,27,02,49,9.30
2020,05,27,02,50,9.30
2020,05,27,02,51,9.30
2020,05,27,02,52,9.30
2020,05,27,02,53,9.30
2020,05,27,02,54,9.30
2020,05,27,02,55,9.30
2020,05,27,02,56,9.30
2020,05,27,02,57,9.30
2020,05,27,02,58,9.30
2020,05,27,02,59,9.30
2020,05,27,03,00,9.30
2020,05,27,03,01,9.30
2020,05,27,03,02,9.30
2020,05,27,03,03,9.30
2020,05,27,03,04,9.30
2020,05,27,03,05,9.30
2020,05,27,03,06,9.20
2020,05,27,03,07,9.20
2020,05,27,03,08,9.10
2020,05,27,03,09,9.10
2020,05,27,03,10,9.10
2020,05,27,03,11,9.10
2020,05,27,03,12,9.10
2020,05,27,03,13,9.10
2020,05,27,03,14,9.10
2020,05,27,03,15,9.20
2020,05,27,03,16,9.30
2020,05,27,03,17,9.40
2020,05,27,03,18,9.40
2020,05,27,03,19,9.40
2020,05,27,03,20,9.50
2020,05,27,03,21,9.50
2020,05,27,03,22,9.50
2020,05,27,03,23,9.50
2020,05,27,03,24,9.50
2020,05,27,03,25,9.50
2020,05,27,03,26,9.50
2020,05,27,03,27,9.60
2020,05,27,03,28,9.60
2020,05,27,03,29,9.50
2020,05,27,03,30,9.50
2020,05,27,03,31,9.50
2020,05,27,03,32,9.50
2020,05,27,03,33,9.60
2020,05,27,03,34,9.60
2020,05,27,03,35,9.60
2020,05,27,03,36,9.60
2020,05,27,03,37,9.60
2020,05,27,03,38,9.70
2020,05,27,03,39,9.70
2020,05,27,03,40,9.70
2020,05,27,03,41,9.70
2020,05,27,03,42,9.80
2020,05,27,03,43,9.80
2020,05,27,03,44,9.80
2020,05,27,03,45,9.80
2020,05,27,03,46,9.80
2020,05,27,03,47,9.80
2020,05,27,03,48,9.70
2020,05,27,03,49,9.70
2020,05,27,03,50,9.70
2020,05,27,03,51,9.60
2020,05,27,03,52,9.60
2020,05,27,03,53,9.50
2020,05,27,03,54,9.40
2020,05,27,03,55,9.30
2020,05,27,03,56,9.30
2020,05,27,03,57,9.20
2020,05,27,03,58,9.10
2020,05,27,03,59,9.10
2020,05,27,04,00,9.10
2020,05,27,04,01,9.00
2020,05,27,04,02,9.00
2020,05,27,04,03,9.00
2020,05,27,04,04,9.10
2020,05,27,04,05,9.10
2020,05,27,04,06,9.20
2020,05,27,04,07,9.20
2020,05,27,04,08,9.30
2020,05,27,04,09,9.30
2020,05,27,04,10,9.40
2020,05,27,04,11,9.40
2020,05,27,04,12,9.40
2020,05,27,04,13,9.40
2020,05,27,04,14,9.30
2020,05,27,04,15,9.30
2020,05,27,04,16,9.30
2020,05,27,04,17,9.30
2020,05,27,04,18,9.40
2020,05,27,04,19,9.40
2020,05,27,04,20,9.40
2020,05,27,04,21,9.40
2020,05,27,04,22,9.50
2020,05,27,04,23,9.60
2020,05,27,04,24,9.60
2020,05,27,04,25,9.70
2020,05,27,04,26,9.70
2020,05,27,04,27,9.80
2020,05,27,04,28,9.90
2020,05,27,04,29,10.00
2020,05,27,04,30,10.00
2020,05,27,04,31,10.10
2020,05,27,04,32,10.10
2020,05,27,04,33,10.20
2020,05,27,04,34,10.20
2020,05,27,04,35,10.20
2020,05,27,04,36,10.20
2020,05,27,04,37,10.30
2020,05,27,04,38,10.40
2020,05,27,04,39,10.50
2020,05,27,04,40,10.60
2020,05,27,04,41,10.70
2020,05,27,04,42,10.80
2020,05,27,04,43,10.90
2020,05,27,04,44,10.90
2020,05,27,04,45,11.00
2020,05,27,04,46,11.00
2020,05,27,04,47,11.00
2020,05,27,04,48,11.00
2020,05,27,04,49,11.00
2020,05,27,04,50,10.90
2020,05,27,04,51,10.90
2020,05,27,04,52,10.80
2020,05,27,04,53,10.70
2020,05,27,04,54,10.70
2020,05,27,04,55,10.70
2020,05,27,04,56,10.70
2020,05,27,04,57,10.80
2020,05,27,04,58,10.80
2020,05,27,04,59,10.80
2020,05,27,05,00,10.80
2020,05,27,05,01,10.80
2020,05,27,05,02,10.80
2020,05,27,05,03,10.80
2020,05,27,05,04,10.70
2020,05,27,05,05,10.80
2020,05,27,05,06,10.80
2020,05,27,05,07,10.80
2020,05,27,05,08,10.80
2020,05,27,05,09,10.80
2020,05,27,05,10,10.80
2020,05,27,05,11,10.80
2020,05,27,05,12,10.70
2020,05,27,05,13,10.70
2020,05,27,05,14,10.60
2020,05,27,05,15,10.50
2020,05,27,05,16,10.40
2020,05,27,05,17,10.20
2020,05,27,05,18,10.10
2020,05,27,05,19,9.90
2020,05,27,05,20,9.70
2020,05,27,05,21,9.50
2020,05,27,05,22,9.50
2020,05,27,05,23,9.40
2020,05,27,05,24,9.40
2020,05,27,05,25,9.50
2020,05,27,05,26,9.60
2020,05,27,05,27,9.70
2020,05,27,05,28,9.80
2020,05,27,05,29,9.80
2020,05,27,05,30,9.90
2020,05,27,05,31,9.90
2020,05,27,05,32,10.00
2020,05,27,05,33,10.00
2020,05,27,05,34,10.00
2020,05,27,05,35,9.90
2020,05,27,05,36,9.90
2020,05,27,05,37,9.90
2020,05,27,05,38,9.80
2020,05,27,05,39,9.80
2020,05,27,05,40,9.80
2020,05,27,05,41,9.80
2020,05,27,05,42,9.80
2020,05,27,05,43,9.90
2020,05,27,05,44,9.90
2020,05,27,05,45,9.90
2020,05,27,05,46,9.90
2020,05,27,05,47,9.90
2020,05,27,05,48,9.90
2020,05,27,05,49,9.80
2020,05,27,05,50,9.80
2020,05,27,05,51,9.80
2020,05,27,05,52,9.70
2020,05,27,05,53,9.70
2020,05,27,05,54,9.70
2020,05,27,05,55,9.60
2020,05,27,05,56,9.60
2020,05,27,05,57,9.60
2020,05,27,05,58,9.60
2020,05,27,05,59,9.60
2020,05,27,06,00,9.60
2020,05,27,06,01,9.60
2020,05,27,06,02,9.70
2020,05,27,06,03,9.80
2020,05,27,06,04,9.80
2020,05,27,06,05,9.90
2020,05,27,06,06,9.90
2020,05,27,06,07,10.00
2020,05,27,06,08,10.10
2020,05,27,06,09,10.10
2020,05,27,06,10,10.20
2020,05,27,06,11,10.30
2020,05,27,06,12,10.30
2020,05,27,06,13,10.40
2020,05,27,06,14,10.40
2020,05,27,06,15,10.50
2020,05,27,06,16,10.50
2020,05,27,06,17,10.60
2020,05,27,06,18,10.60
2020,05,27,06,19,10.70
2020,05,27,06,20,10.70
2020,05,27,06,21,10.80
2020,05,27,06,22,10.80
2020,05,27,06,23,10.90
2020,05,27,06,24,10.90
2020,05,27,06,25,10.90
2020,05,27,06,26,10.90
2020,05,27,06,27,11.00
2020,05,27,06,28,11.00
2020,05,27,06,29,11.00
2020,05,27,06,30,11.00
2020,05,27,06,31,11.10
2020,05,27,06,32,11.10
2020,05,27,06,33,11.10
2020,05,27,06,34,11.20
2020,05,27,06,35,11.20
2020,05,27,06,36,11.30
2020,05,27,06,37,11.30
2020,05,27,06,38,11.30
2020,05,27,06,39,11.40
2020,05,27,06,40,11.40
2020,05,27,06,41,11.50
2020,05,27,06,42,11.50
2020,05,27,06,43,11.60
2020,05,27,06,44,11.60
2020,05,27,06,45,11.60
2020,05,27,06,46,11.60
2020,05,27,06,47,11.70
2020,05,27,06,48,11.80
2020,05,27,06,49,11.90
2020,05,27,06,50,12.00
2020,05,27,06,51,12.10
2020,05,27,06,52,12.10
2020,05,27,06,53,12.20
2020,05,27,06,54,12.30
2020,05,27,06,55,12.30
2020,05,27,06,56,12.40
2020,05,27,06,57,12.40
2020,05,27,06,58,12.50
2020,05,27,06,59,12.60
2020,05,27,07,00,12.60
2020,05,27,07,01,12.60
2020,05,27,07,02,12.70
2020,05,27,07,03,12.70
2020,05,27,07,04,12.80
2020,05,27,07,05,12.80
2020,05,27,07,06,12.80
2020,05,27,07,07,12.90
2020,05,27,07,08,12.90
2020,05,27,07,09,12.90
2020,05,27,07,10,12.90
2020,05,27,07,11,12.90
2020,05,27,07,12,13.00
2020,05,27,07,13,13.00
2020,05,27,07,14,13.10
2020,05,27,07,15,13.10
2020,05,27,07,16,13.10
2020,05,27,07,17,13.10
2020,05,27,07,18,13.10
2020,05,27,07,19,13.20
2020,05,27,07,20,13.20
2020,05,27,07,21,13.20
2020,05,27,07,22,13.20
2020,05,27,07,23,13.20
2020,05,27,07,24,13.20
2020,05,27,07,25,13.30
2020,05,27,07,26,13.30
2020,05,27,07,27,13.30
2020,05,27,07,28,13.30
2020,05,27,07,29,13.30
2020,05,27,07,30,13.40
2020,05,27,07,31,13.40
2020,05,27,07,32,13.40
2020,05,27,07,33,13.40
2020,05,27,07,34,13.40
2020,05,27,07,35,13.40
2020,05,27,07,36,13.50
2020,05,27,07,37,13.50
2020,05,27,07,38,13.50
2020,05,27,07,39,13.50
2020,05,27,07,40,13.60
2020,05,27,07,41,13.60
2020,05,27,07,42,13.60
2020,05,27,07,43,13.70
2020,05,27,07,44,13.70
2020,05,27,07,45,13.70
2020,05,27,07,46,13.70
2020,05,27,07,47,13.70
2020,05,27,07,48,13.80
2020,05,27,07,49,13.80
2020,05,27,07,50,13.80
2020,05,27,07,51,13.80
2020,05,27,07,52,13.80
2020,05,27,07,53,13.80
2020,05,27,07,54,13.80
2020,05,27,07,55,13.80
2020,05,27,07,56,13.90
2020,05,27,07,57,13.90
2020,05,27,07,58,13.90
2020,05,27,07,59,13.90
2020,05,27,08,00,13.90
2020,05,27,08,01,13.90
2020,05,27,08,02,13.90
2020,05,27,08,03,14.00
2020,05,27,08,04,14.00
2020,05,27,08,05,14.00
2020,05,27,08,06,14.00
2020,05,27,08,07,14.10
2020,05,27,08,08,14.10
2020,05,27,08,09,14.10
2020,05,27,08,10,14.20
2020,05,27,08,11,14.20
2020,05,27,08,12,14.20
2020,05,27,08,13,14.20
2020,05,27,08,14,14.10
2020,05,27,08,15,14.20
2020,05,27,08,16,14.20
2020,05,27,08,17,14.20
2020,05,27,08,18,14.20
2020,05,27,08,19,14.20
2020,05,27,08,20,14.30
2020,05,27,08,21,14.20
2020,05,27,08,22,14.20
2020,05,27,08,23,14.20
2020,05,27,08,24,14.20
2020,05,27,08,25,14.20
2020,05,27,08,26,14.20
2020,05,27,08,27,14.30
2020,05,27,08,28,14.30
2020,05,27,08,29,14.40
2020,05,27,08,30,14.40
2020,05,27,08,31,14.40
2020,05,27,08,32,14.40
2020,05,27,08,33,14.40
2020,05,27,08,34,14.40
2020,05,27,08,35,14.40
2020,05,27,08,36,14.40
2020,05,27,08,37,14.40
2020,05,27,08,38,14.40
2020,05,27,08,39,14.40
2020,05,27,08,40,14.40
2020,05,27,08,41,14.50
2020,05,27,08,42,14.50
2020,05,27,08,43,14.50
2020,05,27,08,44,14.50
2020,05,27,08,45,14.50
2020,05,27,08,46,14.60
2020,05,27,08,47,14.70
2020,05,27,08,48,14.70
2020,05,27,08,49,14.80
2020,05,27,08,50,14.90
2020,05,27,08,51,14.90
2020,05,27,08,52,14.90
2020,05,27,08,53,14.90
2020,05,27,08,54,14.90
2020,05,27,08,55,14.90
2020,05,27,08,56,14.90
2020,05,27,08,57,15.00
2020,05,27,08,58,15.00
2020,05,27,08,59,15.10
2020,05,27,09,00,15.10
2020,05,27,09,01,15.10
2020,05,27,09,02,15.10
2020,05,27,09,03,15.10
2020,05,27,09,04,15.10
2020,05,27,09,05,15.10
2020,05,27,09,06,15.20
2020,05,27,09,07,15.20
2020,05,27,09,08,15.20
2020,05,27,09,09,15.20
2020,05,27,09,10,15.30
2020,05,27,09,11,15.30
2020,05,27,09,12,15.40
2020,05,27,09,13,15.50
2020,05,27,09,14,15.50
2020,05,27,09,15,15.50
2020,05,27,09,16,15.50
2020,05,27,09,17,15.50
2020,05,27,09,18,15.40
2020,05,27,09,19,15.40
2020,05,27,09,20,15.40
2020,05,27,09,21,15.30
2020,05,27,09,22,15.30
2020,05,27,09,23,15.30
2020,05,27,09,24,15.20
2020,05,27,09,25,15.20
2020,05,27,09,26,15.30
2020,05,27,09,27,15.30
2020,05,27,09,28,15.30
2020,05,27,09,29,15.30
2020,05,27,09,30,15.40
2020,05,27,09,31,15.40
2020,05,27,09,32,15.40
2020,05,27,09,33,15.40
2020,05,27,09,34,15.40
2020,05,27,09,35,15.40
2020,05,27,09,36,15.40
2020,05,27,09,37,15.40
2020,05,27,09,38,15.40
2020,05,27,09,39,15.40
2020,05,27,09,40,15.50
2020,05,27,09,41,15.50
2020,05,27,09,42,15.60
2020,05,27,09,43,15.60
2020,05,27,09,44,15.60
2020,05,27,09,45,15.60
2020,05,27,09,46,15.60
2020,05,27,09,47,15.60
2020,05,27,09,48,15.70
2020,05,27,09,49,15.70
2020,05,27,09,50,15.80
2020,05,27,09,51,15.80
2020,05,27,09,52,15.90
2020,05,27,09,53,15.90
2020,05,27,09,54,15.80
2020,05,27,09,55,15.70
2020,05,27,09,56,15.70
2020,05,27,09,57,15.70
2020,05,27,09,58,15.80
2020,05,27,09,59,15.80
2020,05,27,10,00,15.90
2020,05,27,10,01,16.00
2020,05,27,10,02,16.10
2020,05,27,10,03,16.20
2020,05,27,10,04,16.30
2020,05,27,10,05,16.30
2020,05,27,10,06,16.40
2020,05,27,10,07,16.50
2020,05,27,10,08,16.50
2020,05,27,10,09,16.50
2020,05,27,10,10,16.50
2020,05,27,10,11,16.60
2020,05,27,10,12,16.60
2020,05,27,10,13,16.60
2020,05,27,10,14,16.60
2020,05,27,10,15,16.70
2020,05,27,10,16,16.70
2020,05,27,10,17,16.70
2020,05,27,10,18,16.70
2020,05,27,10,19,16.60
2020,05,27,10,20,16.50
2020,05,27,10,21,16.40
2020,05,27,10,22,16.50
2020,05,27,10,23,16.50
2020,05,27,10,24,16.50
2020,05,27,10,25,16.50
2020,05,27,10,26,16.50
2020,05,27,10,27,16.60
2020,05,27,10,28,16.50
2020,05,27,10,29,16.50
2020,05,27,10,30,16.60
2020,05,27,10,31,16.60
2020,05,27,10,32,16.60
2020,05,27,10,33,16.50
2020,05,27,10,34,16.40
2020,05,27,10,35,16.40
2020,05,27,10,36,16.30
2020,05,27,10,37,16.20
2020,05,27,10,38,16.20
2020,05,27,10,39,16.20
2020,05,27,10,40,16.20
2020,05,27,10,41,16.30
2020,05,27,10,42,16.30
2020,05,27,10,43,16.40
2020,05,27,10,44,16.40
2020,05,27,10,45,16.40
2020,05,27,10,46,16.40
2020,05,27,10,47,16.50
2020,05,27,10,48,16.50
2020,05,27,10,49,16.60
2020,05,27,10,50,16.70
2020,05,27,10,51,16.70
2020,05,27,10,52,16.70
2020,05,27,10,53,16.70
2020,05,27,10,54,16.70
2020,05,27,10,55,16.70
2020,05,27,10,56,16.70
2020,05,27,10,57,16.70
2020,05,27,10,58,16.80
2020,05,27,10,59,16.90
2020,05,27,11,00,16.90
2020,05,27,11,01,16.90
2020,05,27,11,02,16.90
2020,05,27,11,03,16.90
2020,05,27,11,04,16.90
2020,05,27,11,05,16.90
2020,05,27,11,06,16.90
2020,05,27,11,07,16.80
2020,05,27,11,08,16.90
2020,05,27,11,09,16.90
2020,05,27,11,10,16.90
2020,05,27,11,11,16.90
2020,05,27,11,12,16.90
2020,05,27,11,13,16.90
2020,05,27,11,14,17.00
2020,05,27,11,15,17.10
2020,05,27,11,16,17.20
2020,05,27,11,17,17.20
2020,05,27,11,18,17.30
2020,05,27,11,19,17.30
2020,05,27,11,20,17.30
2020,05,27,11,21,17.30
2020,05,27,11,22,17.20
2020,05,27,11,23,17.20
2020,05,27,11,24,17.30
2020,05,27,11,25,17.40
2020,05,27,11,26,17.40
2020,05,27,11,27,17.40
2020,05,27,11,28,17.40
2020,05,27,11,29,17.40
2020,05,27,11,30,17.60
2020,05,27,11,31,17.70
2020,05,27,11,32,17.70
2020,05,27,11,33,17.80
2020,05,27,11,34,17.80
2020,05,27,11,35,17.80
2020,05,27,11,36,17.80
2020,05,27,11,37,17.80
2020,05,27,11,38,17.80
2020,05,27,11,39,17.80
2020,05,27,11,40,17.80
2020,05,27,11,41,17.70
2020,05,27,11,42,17.70
2020,05,27,11,43,17.70
2020,05,27,11,44,17.80
2020,05,27,11,45,17.80
2020,05,27,11,46,17.80
2020,05,27,11,47,17.90
2020,05,27,11,48,17.90
2020,05,27,11,49,17.90
2020,05,27,11,50,17.90
2020,05,27,11,51,18.00
2020,05,27,11,52,18.00
2020,05,27,11,53,18.10
2020,05,27,11,54,18.10
2020,05,27,11,55,18.10
2020,05,27,11,56,18.00
2020,05,27,11,57,18.00
2020,05,27,11,58,18.00
2020,05,27,11,59,18.10
2020,05,27,12,00,18.20
2020,05,27,12,01,18.20
2020,05,27,12,02,18.20
2020,05,27,12,03,18.20
2020,05,27,12,04,18.20
2020,05,27,12,05,18.20
2020,05,27,12,06,18.30
2020,05,27,12,07,18.30
2020,05,27,12,08,18.40
2020,05,27,12,09,18.50
2020,05,27,12,10,18.50
2020,05,27,12,11,18.60
2020,05,27,12,12,18.60
2020,05,27,12,13,18.60
2020,05,27,12,14,18.70
2020,05,27,12,15,18.70
2020,05,27,12,16,18.70
2020,05,27,12,17,18.70
2020,05,27,12,18,18.80
2020,05,27,12,19,18.90
2020,05,27,12,20,18.90
2020,05,27,12,21,18.80
2020,05,27,12,22,18.70
2020,05,27,12,23,18.60
2020,05,27,12,24,18.60
2020,05,27,12,25,18.60
2020,05,27,12,26,18.70
2020,05,27,12,27,18.80
2020,05,27,12,28,18.90
2020,05,27,12,29,19.00
2020,05,27,12,30,19.10
2020,05,27,12,31,19.10
2020,05,27,12,32,19.10
2020,05,27,12,33,19.00
2020,05,27,12,34,19.00
2020,05,27,12,35,18.90
2020,05,27,12,36,18.80
2020,05,27,12,37,18.70
2020,05,27,12,38,18.60
2020,05,27,12,39,18.50
2020,05,27,12,40,18.40
2020,05,27,12,41,18.40
2020,05,27,12,42,18.30
2020,05,27,12,43,18.30
2020,05,27,12,44,18.40
2020,05,27,12,45,18.50
2020,05,27,12,46,18.50
2020,05,27,12,47,18.50
2020,05,27,12,48,18.50
2020,05,27,12,49,18.40
2020,05,27,12,50,18.40
2020,05,27,12,51,18.30
2020,05,27,12,52,18.30
2020,05,27,12,53,18.40
2020,05,27,12,54,18.40
2020,05,27,12,55,18.30
2020,05,27,12,56,18.40
2020,05,27,12,57,18.40
2020,05,27,12,58,18.30
2020,05,27,12,59,18.30
2020,05,27,13,00,18.40
2020,05,27,13,01,18.40
2020,05,27,13,02,18.50
2020,05,27,13,03,18.60
2020,05,27,13,04,18.70
2020,05,27,13,05,18.70
2020,05,27,13,06,18.60
2020,05,27,13,07,18.60
2020,05,27,13,08,18.50
2020,05,27,13,09,18.40
2020,05,27,13,10,18.30
2020,05,27,13,11,18.30
2020,05,27,13,12,18.20
2020,05,27,13,13,18.20
2020,05,27,13,14,18.00
2020,05,27,13,15,18.00
2020,05,27,13,16,18.00
2020,05,27,13,17,18.00
2020,05,27,13,18,18.00
2020,05,27,13,19,18.10
2020,05,27,13,20,18.10
2020,05,27,13,21,18.20
2020,05,27,13,22,18.20
2020,05,27,13,23,18.20
2020,05,27,13,24,18.20
2020,05,27,13,25,18.20
2020,05,27,13,26,18.20
2020,05,27,13,27,18.10
2020,05,27,13,28,18.10
2020,05,27,13,29,18.10
2020,05,27,13,30,18.20
2020,05,27,13,31,18.20
2020,05,27,13,32,18.20
2020,05,27,13,33,18.20
2020,05,27,13,34,18.30
2020,05,27,13,35,18.40
2020,05,27,13,36,18.50
2020,05,27,13,37,18.60
2020,05,27,13,38,18.70
2020,05,27,13,39,18.70
2020,05,27,13,40,18.60
2020,05,27,13,41,18.60
2020,05,27,13,42,18.50
2020,05,27,13,43,18.40
2020,05,27,13,44,18.40
2020,05,27,13,45,18.40
2020,05,27,13,46,18.50
2020,05,27,13,47,18.50
2020,05,27,13,48,18.50
2020,05,27,13,49,18.60
2020,05,27,13,50,18.50
2020,05,27,13,51,18.50
2020,05,27,13,52,18.60
2020,05,27,13,53,18.70
2020,05,27,13,54,18.80
2020,05,27,13,55,18.90
2020,05,27,13,56,19.00
2020,05,27,13,57,19.10
2020,05,27,13,58,19.20
2020,05,27,13,59,19.30
2020,05,27,14,00,19.30
2020,05,27,14,01,19.40
2020,05,27,14,02,19.30
2020,05,27,14,03,19.20
2020,05,27,14,04,19.20
2020,05,27,14,05,19.20
2020,05,27,14,06,19.20
2020,05,27,14,07,19.30
2020,05,27,14,08,19.30
2020,05,27,14,09,19.30
2020,05,27,14,10,19.30
2020,05,27,14,11,19.20
2020,05,27,14,12,19.10
2020,05,27,14,13,19.10
2020,05,27,14,14,19.10
2020,05,27,14,15,19.10
2020,05,27,14,16,19.20
2020,05,27,14,17,19.20
2020,05,27,14,18,19.30
2020,05,27,14,19,19.40
2020,05,27,14,20,19.40
2020,05,27,14,21,19.50
2020,05,27,14,22,19.50
2020,05,27,14,23,19.50
2020,05,27,14,24,19.60
2020,05,27,14,25,19.60
2020,05,27,14,26,19.70
2020,05,27,14,27,19.60
2020,05,27,14,28,19.70
2020,05,27,14,29,19.60
2020,05,27,14,30,19.70
2020,05,27,14,31,19.70
2020,05,27,14,32,19.80
2020,05,27,14,33,19.80
2020,05,27,14,34,19.90
2020,05,27,14,35,20.00
2020,05,27,14,36,20.10
2020,05,27,14,37,20.20
2020,05,27,14,38,20.30
2020,05,27,14,39,20.30
2020,05,27,14,40,20.20
2020,05,27,14,41,20.10
2020,05,27,14,42,20.10
2020,05,27,14,43,20.20
2020,05,27,14,44,20.10
2020,05,27,14,45,20.10
2020,05,27,14,46,20.00
2020,05,27,14,47,19.90
2020,05,27,14,48,20.00
2020,05,27,14,49,20.00
2020,05,27,14,50,20.10
2020,05,27,14,51,20.30
2020,05,27,14,52,20.40
2020,05,27,14,53,20.40
2020,05,27,14,54,20.50
2020,05,27,14,55,20.60
2020,05,27,14,56,20.60
2020,05,27,14,57,20.60
2020,05,27,14,58,20.60
2020,05,27,14,59,20.50
2020,05,27,15,00,20.40
2020,05,27,15,01,20.30
2020,05,27,15,02,20.30
2020,05,27,15,03,20.30
2020,05,27,15,04,20.30
2020,05,27,15,05,20.20
2020,05,27,15,06,20.20
2020,05,27,15,07,20.10
2020,05,27,15,08,20.20
2020,05,27,15,09,20.20
2020,05,27,15,10,20.10
2020,05,27,15,11,20.10
2020,05,27,15,12,20.10
2020,05,27,15,13,20.10
2020,05,27,15,14,20.10
2020,05,27,15,15,20.10
2020,05,27,15,16,20.10
2020,05,27,15,17,20.20
2020,05,27,15,18,20.30
2020,05,27,15,19,20.30
2020,05,27,15,20,20.40
2020,05,27,15,21,20.50
2020,05,27,15,22,20.50
2020,05,27,15,23,20.60
2020,05,27,15,24,20.70
2020,05,27,15,25,20.70
2020,05,27,15,26,20.80
2020,05,27,15,27,21.00
2020,05,27,15,28,21.10
2020,05,27,15,29,21.20
2020,05,27,15,30,21.20
2020,05,27,15,31,21.30
2020,05,27,15,32,21.30
2020,05,27,15,33,21.40
2020,05,27,15,34,21.30
2020,05,27,15,35,21.30
2020,05,27,15,36,21.30
2020,05,27,15,37,21.30
2020,05,27,15,38,21.30
2020,05,27,15,39,21.40
2020,05,27,15,40,21.50
2020,05,27,15,41,21.60
2020,05,27,15,42,21.60
2020,05,27,15,43,21.70
2020,05,27,15,44,21.80
2020,05,27,15,45,21.90
2020,05,27,15,46,21.90
2020,05,27,15,47,21.90
2020,05,27,15,48,21.90
2020,05,27,15,49,21.90
2020,05,27,15,50,21.90
2020,05,27,15,51,22.00
2020,05,27,15,52,21.90
2020,05,27,15,53,21.90
2020,05,27,15,54,22.00
2020,05,27,15,55,22.00
2020,05,27,15,56,21.90
2020,05,27,15,57,22.00
2020,05,27,15,58,22.00
2020,05,27,15,59,22.10
2020,05,27,16,00,22.20
2020,05,27,16,01,22.20
2020,05,27,16,02,22.30
2020,05,27,16,03,22.30
2020,05,27,16,04,22.40
2020,05,27,16,05,22.40
2020,05,27,16,06,22.40
2020,05,27,16,07,22.40
2020,05,27,16,08,22.40
2020,05,27,16,09,22.40
2020,05,27,16,10,22.40
2020,05,27,16,11,22.30
2020,05,27,16,12,22.30
2020,05,27,16,13,22.30
2020,05,27,16,14,22.30
2020,05,27,16,15,22.30
2020,05,27,16,16,22.40
2020,05,27,16,17,22.50
2020,05,27,16,18,22.60
2020,05,27,16,19,22.60
2020,05,27,16,20,22.70
2020,05,27,16,21,22.80
2020,05,27,16,22,22.90
2020,05,27,16,23,23.00
2020,05,27,16,24,23.10
2020,05,27,16,25,23.20
2020,05,27,16,26,23.30
2020,05,27,16,27,23.30
2020,05,27,16,28,23.40
2020,05,27,16,29,23.30
2020,05,27,16,30,23.20
2020,05,27,16,31,23.20
2020,05,27,16,32,23.30
2020,05,27,16,33,23.30
2020,05,27,16,34,23.40
2020,05,27,16,35,23.40
2020,05,27,16,36,23.30
2020,05,27,16,37,23.20
2020,05,27,16,38,23.10
2020,05,27,16,39,23.10
2020,05,27,16,40,23.10
2020,05,27,16,41,23.10
2020,05,27,16,42,23.10
2020,05,27,16,43,23.10
2020,05,27,16,44,23.00
2020,05,27,16,45,22.90
2020,05,27,16,46,22.80
2020,05,27,16,47,22.70
2020,05,27,16,48,22.60
2020,05,27,16,49,22.50
2020,05,27,16,50,22.30
2020,05,27,16,51,22.30
2020,05,27,16,52,22.20
2020,05,27,16,53,22.10
2020,05,27,16,54,22.10
2020,05,27,16,55,22.00
2020,05,27,16,56,21.90
2020,05,27,16,57,21.90
2020,05,27,16,58,21.80
2020,05,27,16,59,21.80
2020,05,27,17,00,21.90
2020,05,27,17,01,21.90
2020,05,27,17,02,22.00
2020,05,27,17,03,22.10
2020,05,27,17,04,22.20
2020,05,27,17,05,22.30
2020,05,27,17,06,22.40
2020,05,27,17,07,22.30
2020,05,27,17,08,22.30
2020,05,27,17,09,22.40
2020,05,27,17,10,22.30
2020,05,27,17,11,22.30
2020,05,27,17,12,22.30
2020,05,27,17,13,22.30
2020,05,27,17,14,22.20
2020,05,27,17,15,22.20
2020,05,27,17,16,22.30
2020,05,27,17,17,22.40
2020,05,27,17,18,22.40
2020,05,27,17,19,22.40
2020,05,27,17,20,22.50
2020,05,27,17,21,22.50
2020,05,27,17,22,22.40
2020,05,27,17,23,22.40
2020,05,27,17,24,22.50
2020,05,27,17,25,22.50
2020,05,27,17,26,22.60